Regional Weather Roundup
Issued by NWS

Home | Current Version | Previous Version | Text Only | Print | Product List | Glossary Off
Versions: 1 2 3 4 5 6 7 8 9 10 11 12 13 14 15 16 17 18 19 20 21 22 23 24 25 26 27 28 29 30 31 32 33 34 35 36 37 38 39 40 41 42 43 44 45 46 47 48 49 50

000
ASUS45 KCYS 271010
RWRWY

WYOMING REGIONAL WEATHER ROUNDUP
NATIONAL WEATHER SERVICE CHEYENNE WY
400 AM MDT WED MAY 27 2015

NOTE:  "FAIR" INDICATES FEW OR NO CLOUDS BELOW 12,000 FEET
WITH NO SIGNIFICANT WEATHER AND/OR OBSTRUCTIONS TO VISIBILITY.

WYZ001-271100-
YELLOWSTONE NATIONAL PARK

CITY           SKY/WX    TMP DP  RH WIND       PRES   REMARKS
LK YELLOWSTONE   N/A     36  34  92 CALM      30.15S
W YELLOWSTONE  NOT AVBL

$$
WYZ002>013-054>058-071-098>099-271100-
NORTHERN WYOMING

CITY           SKY/WX    TMP DP  RH WIND       PRES   REMARKS
JACKSON        MOCLDY    39  39 100 N3        30.11R
CODY           CLOUDY    52  45  76 NW5       30.00R
GREYBULL       CLOUDY    54  52  93 E13       29.98R
WORLAND        MOCLDY    53  50  89 S3        29.98S
SHERIDAN       CLOUDY    48  45  89 SW5       29.94F
BUFFALO        CLOUDY    52  46  80 CALM      29.98F
GILLETTE       FAIR      50  47  89 S10       29.97S
HULETT         FAIR      54  46  76 SW7       29.99S
NEWCASTLE      FAIR      50  45  81 CALM      30.00S

$$
WYZ014>020-022>026-101>103-271100-
CENTRAL WYOMING

CITY           SKY/WX    TMP DP  RH WIND       PRES   REMARKS
BIG PINEY      FOG       40  39  97 NW8       30.11F VSB 1/2 WCI  34
PINEDALE       PTSUNNY   41  41 100 NW6       30.13R
DUBOIS         FAIR      41  36  81 NW15      30.09R
LANDER         FAIR      46  40  79 W6        30.00F
RIVERTON       FAIR      47  45  93 NW6       30.01F
CASPER         FAIR      49  46  90 SW6       30.03S
DOUGLAS        CLOUDY    50  49  96 CALM      30.03S

$$
WYZ021-027>030-104>119-271100-
SOUTHERN WYOMING

CITY           SKY/WX    TMP DP  RH WIND       PRES   REMARKS
EVANSTON       FAIR      41  39  93 S7        30.14R
KEMMERER       FAIR      37  37 100 CALM      30.13F
FORT BRIDGER   SUNNY     43  43 100 W8        30.16S
ROCK SPRINGS   FAIR      44  42  93 SW12      30.11S
DIXON          LGT RAIN  46  44  92 S14G20    30.16R
RAWLINS        CLOUDY    47  43  86 SW7       30.11R
SARATOGA       CLOUDY    45  43  93 CALM      30.13S
LARAMIE        CLOUDY    46  42  86 SW8       30.13S
CHEYENNE       CLOUDY    49  46  90 CALM      30.09R
TORRINGTON     CLOUDY    53  52  96 E9        30.01S
PINE BLUFFS    FAIR      46  45  93 CALM      30.06S

$$



USA.gov is the U.S. government's official web portal to all federal, state and local government web resources and services.